,,,PA_Meas_PMT16A,,PR_Meas_QMR101_102,,RH_Meas_QMH101,,SR_Meas_QMS101,,TA_Meas_QMH101,,GenWind,,GenWind,
date,time,status,PA,status,PR,status,RH,status,SR,status,TA,status,DirAvg,status,SpdAvg,
2010-11-09, 00:00:05,VALID,1001.27,VALID,0,VALID,91.6775,VALID,0,VALID,23.7402,VALID,72,VALID,0.697266,
2010-11-09, 00:01:05,VALID,1001.3,VALID,0,VALID,91.5554,VALID,0,VALID,23.6799,VALID,72,VALID,0.775781,
2010-11-09, 00:02:05,VALID,1001.29,VALID,0,VALID,91.5326,VALID,0,VALID,23.6622,VALID,68,VALID,0.91875,
2010-11-09, 00:03:05,VALID,1001.28,VALID,0,VALID,91.5478,VALID,0,VALID,23.6232,VALID,58,VALID,0.876172,
2010-11-09, 00:04:05,VALID,1001.27,VALID,0,VALID,91.5326,VALID,0,VALID,23.5646,VALID,56,VALID,0.894141,
2010-11-09, 00:05:05,VALID,1001.28,VALID,0,VALID,91.5783,VALID,0,VALID,23.5238,VALID,53,VALID,0.888672,
2010-11-09, 00:06:05,VALID,1001.26,VALID,0,VALID,91.4715,VALID,0,VALID,23.4671,VALID,40,VALID,0.615625,
2010-11-09, 00:07:05,VALID,1001.26,VALID,0,VALID,91.4563,VALID,0,VALID,23.3677,VALID,40,VALID,0.724609,
2010-11-09, 00:08:05,VALID,1001.23,VALID,0,VALID,91.4791,VALID,0,VALID,23.3092,VALID,40,VALID,0.864844,
2010-11-09, 00:09:05,VALID,1001.18,VALID,0,VALID,91.7157,VALID,0,VALID,23.35,VALID,46,VALID,1.00352,
2010-11-09, 00:10:05,VALID,1001.19,VALID,0,VALID,91.8759,VALID,0,VALID,23.35,VALID,61,VALID,0.892969,
2010-11-09, 00:11:05,VALID,1001.21,VALID,0,VALID,92.0437,VALID,0,VALID,23.3287,VALID,64,VALID,0.959766,
2010-11-09, 00:12:05,VALID,1001.17,VALID,0,VALID,92.1963,VALID,0,VALID,23.389,VALID,65,VALID,0.817969,
2010-11-09, 00:13:05,VALID,1001.2,VALID,0,VALID,92.2879,VALID,0,VALID,23.3677,VALID,76,VALID,0.998828,
2010-11-09, 00:14:05,VALID,1001.18,VALID,0,VALID,92.3489,VALID,0,VALID,23.3872,VALID,79,VALID,0.771094,
2010-11-09, 00:15:05,VALID,1001.17,VALID,0,VALID,92.4405,VALID,0,VALID,23.3872,VALID,79,VALID,0.871484,
2010-11-09, 00:16:05,VALID,1001.13,VALID,0,VALID,92.4939,VALID,0,VALID,23.4458,VALID,79,VALID,0.789844,
2010-11-09, 00:17:05,VALID,1001.12,VALID,0,VALID,92.5244,VALID,0,VALID,23.4653,VALID,79,VALID,0.683984,
2010-11-09, 00:18:05,VALID,1001.08,VALID,0,VALID,92.532,VALID,0,VALID,23.5043,VALID,79,VALID,0.619141,
2010-11-09, 00:19:05,VALID,1001.06,VALID,0,VALID,92.5244,VALID,0,VALID,23.5043,VALID,79,VALID,0.475781,
2010-11-09, 00:20:05,VALID,1001,VALID,0,VALID,92.5168,VALID,0,VALID,23.5043,VALID,79,VALID,0.477344,
2010-11-09, 00:21:05,VALID,1001,VALID,0,VALID,92.471,VALID,0,VALID,23.5061,VALID,79,VALID,0.547266,
2010-11-09, 00:22:05,VALID,1000.98,VALID,0,VALID,92.4252,VALID,0,VALID,23.5043,VALID,79,VALID,0.867188,
2010-11-09, 00:23:04,VALID,1000.95,VALID,0,VALID,92.3947,VALID,0,VALID,23.5043,VALID,71,VALID,0.959375,
2010-11-09, 00:24:04,VALID,1000.94,VALID,0,VALID,92.3566,VALID,0,VALID,23.5238,VALID,71,VALID,0.885156,
2010-11-09, 00:25:04,VALID,1000.94,VALID,0,VALID,92.2726,VALID,0,VALID,23.5646,VALID,71,VALID,0.639453,
2010-11-09, 00:26:04,VALID,1000.9,VALID,0,VALID,92.1887,VALID,0.112286,VALID,23.5433,VALID,71,VALID,0.572266,
2010-11-09, 00:27:04,VALID,1000.92,VALID,0,VALID,92.0819,VALID,0,VALID,23.5433,VALID,71,VALID,0.599609,
2010-11-09, 00:28:04,VALID,1000.93,VALID,0,VALID,91.998,VALID,0,VALID,23.5433,VALID,71,VALID,0.724219,
2010-11-09, 00:29:04,VALID,1000.89,VALID,0,VALID,91.9445,VALID,0,VALID,23.5433,VALID,71,VALID,0.68125,
2010-11-09, 00:30:04,VALID,1000.9,VALID,0,VALID,91.914,VALID,0,VALID,23.5841,VALID,72,VALID,0.707422,
2010-11-09, 00:31:04,VALID,1000.91,VALID,0,VALID,91.9369,VALID,0,VALID,23.5823,VALID,83,VALID,0.654297,
2010-11-09, 00:32:04,VALID,1000.89,VALID,0,VALID,91.914,VALID,0,VALID,23.5823,VALID,83,VALID,0.385156,
2010-11-09, 00:33:04,VALID,1000.9,VALID,0,VALID,91.853,VALID,0,VALID,23.5646,VALID,83,VALID,0.239063,
2010-11-09, 00:34:04,VALID,1000.87,VALID,0,VALID,91.7996,VALID,0,VALID,23.5628,VALID,83,VALID,0.102344,
2010-11-09, 00:35:04,VALID,1000.86,VALID,0,VALID,91.8148,VALID,0,VALID,23.5841,VALID,83,VALID,0,
2010-11-09, 00:36:04,VALID,1000.82,VALID,0,VALID,91.8454,VALID,0,VALID,23.5823,VALID,83,VALID,0,
2010-11-09, 00:37:04,VALID,1000.82,VALID,0,VALID,91.8759,VALID,0,VALID,23.6232,VALID,83,VALID,0,
2010-11-09, 00:38:04,VALID,1000.77,VALID,0,VALID,91.8759,VALID,0,VALID,23.6214,VALID,83,VALID,0,
2010-11-09, 00:39:04,VALID,1000.76,VALID,0,VALID,91.914,VALID,0,VALID,23.6427,VALID,83,VALID,0,
2010-11-09, 00:40:04,VALID,1000.75,VALID,0,VALID,91.8988,VALID,0,VALID,23.6409,VALID,83,VALID,0,
2010-11-09, 00:41:04,VALID,1000.72,VALID,0,VALID,91.8606,VALID,0.112286,VALID,23.6409,VALID,83,VALID,0,
2010-11-09, 00:42:04,VALID,1000.74,VALID,0,VALID,91.853,VALID,0,VALID,23.6604,VALID,83,VALID,0,
2010-11-09, 00:43:04,VALID,1000.74,VALID,0,VALID,91.7843,VALID,0,VALID,23.6232,VALID,83,VALID,0,
2010-11-09, 00:44:04,VALID,1000.77,VALID,0,VALID,91.6088,VALID,0,VALID,23.5433,VALID,83,VALID,0,
2010-11-09, 00:45:04,VALID,1000.78,VALID,0,VALID,91.38,VALID,0,VALID,23.4866,VALID,83,VALID,0,
2010-11-09, 00:46:04,VALID,1000.82,VALID,0,VALID,91.2197,VALID,0,VALID,23.428,VALID,83,VALID,0,
2010-11-09, 00:47:04,VALID,1000.85,VALID,0,VALID,91.1434,VALID,0,VALID,23.3695,VALID,83,VALID,0,
2010-11-09, 00:48:04,VALID,1000.87,VALID,0,VALID,91.1511,VALID,0,VALID,23.3092,VALID,83,VALID,0,
2010-11-09, 00:49:04,VALID,1000.86,VALID,0,VALID,91.1663,VALID,0,VALID,23.2507,VALID,83,VALID,0,
2010-11-09, 00:50:04,VALID,1000.89,VALID,0,VALID,91.3723,VALID,0,VALID,23.2897,VALID,83,VALID,0,
2010-11-09, 00:51:04,VALID,1000.89,VALID,0,VALID,91.6699,VALID,0,VALID,23.3092,VALID,83,VALID,0,
2010-11-09, 00:52:04,VALID,1000.88,VALID,0,VALID,91.8911,VALID,0,VALID,23.3695,VALID,83,VALID,0.351953,
2010-11-09, 00:53:04,VALID,1000.88,VALID,0,VALID,92.0056,VALID,0,VALID,23.3677,VALID,83,VALID,0.539453,
2010-11-09, 00:54:04,VALID,1000.91,VALID,0,VALID,92.0895,VALID,0,VALID,23.4475,VALID,83,VALID,0.91875,
2010-11-09, 00:55:04,VALID,1000.88,VALID,0,VALID,92.1429,VALID,0,VALID,23.5256,VALID,83,VALID,1.00117,
2010-11-09, 00:56:04,VALID,1000.87,VALID,0,VALID,92.0819,VALID,0,VALID,23.6232,VALID,83,VALID,0.790625,
2010-11-09, 00:57:04,VALID,1000.87,VALID,0,VALID,91.9445,VALID,0,VALID,23.6604,VALID,83,VALID,0.824219,
2010-11-09, 00:58:04,VALID,1000.86,VALID,0,VALID,91.7157,VALID,0,VALID,23.7012,VALID,83,VALID,0.948828,
2010-11-09, 00:59:04,VALID,1000.85,VALID,0,VALID,91.4028,VALID,0,VALID,23.7207,VALID,83,VALID,0.724219,
2010-11-09, 01:00:04,VALID,1000.87,VALID,0,VALID,91.0977,VALID,0,VALID,23.6799,VALID,69,VALID,0.687891,
2010-11-09, 01:01:04,VALID,1000.84,VALID,0,VALID,90.8688,VALID,0,VALID,23.6817,VALID,69,VALID,0.869922,
2010-11-09, 01:02:04,VALID,1000.83,VALID,0,VALID,90.8077,VALID,0,VALID,23.6409,VALID,81,VALID,1.05352,
2010-11-09, 01:03:04,VALID,1000.83,VALID,0,VALID,90.8535,VALID,0,VALID,23.6427,VALID,92,VALID,1.12617,
2010-11-09, 01:04:04,VALID,1000.82,VALID,0,VALID,91.0214,VALID,0,VALID,23.6232,VALID,92,VALID,1.08008,
2010-11-09, 01:05:04,VALID,1000.77,VALID,0,VALID,91.1816,VALID,0,VALID,23.6232,VALID,92,VALID,0.884375,
2010-11-09, 01:06:04,VALID,1000.76,VALID,0,VALID,91.235,VALID,0,VALID,23.6232,VALID,92,VALID,0.587891,
2010-11-09, 01:07:04,VALID,1000.75,VALID,0,VALID,91.2579,VALID,0,VALID,23.6036,VALID,92,VALID,0.367578,
2010-11-09, 01:08:04,VALID,1000.75,VALID,0,VALID,91.2426,VALID,0,VALID,23.5841,VALID,92,VALID,0.613281,
2010-11-09, 01:09:04,VALID,1000.74,VALID,0,VALID,91.3037,VALID,0,VALID,23.5841,VALID,92,VALID,0.56875,
2010-11-09, 01:10:04,VALID,1000.7,VALID,0,VALID,91.296,VALID,0,VALID,23.5841,VALID,92,VALID,0.728125,
2010-11-09, 01:11:04,VALID,1000.72,VALID,0,VALID,91.3723,VALID,0,VALID,23.5823,VALID,92,VALID,1.13945,
2010-11-09, 01:12:04,VALID,1000.71,VALID,0,VALID,91.3647,VALID,0,VALID,23.6232,VALID,86,VALID,1.27891,
2010-11-09, 01:13:04,VALID,1000.74,VALID,0,VALID,91.2808,VALID,0,VALID,23.6427,VALID,85,VALID,1.51875,
2010-11-09, 01:14:04,VALID,1000.74,VALID,0,VALID,91.2045,VALID,0,VALID,23.6799,VALID,81,VALID,1.50508,
2010-11-09, 01:15:04,VALID,1000.74,VALID,0,VALID,91.029,VALID,0,VALID,23.7402,VALID,78,VALID,1.34766,
2010-11-09, 01:16:04,VALID,1000.67,VALID,0,VALID,90.884,VALID,0,VALID,23.7579,VALID,77,VALID,1.19531,
2010-11-09, 01:17:04,VALID,1000.68,VALID,0,VALID,90.6475,VALID,0,VALID,23.797,VALID,77,VALID,1.03477,
2010-11-09, 01:18:04,VALID,1000.73,VALID,0,VALID,90.3957,VALID,0,VALID,23.8183,VALID,77,VALID,0.983984,
2010-11-09, 01:19:04,VALID,1000.72,VALID,0,VALID,90.3194,VALID,0,VALID,23.7775,VALID,77,VALID,0.832422,
2010-11-09, 01:20:04,VALID,1000.7,VALID,0,VALID,90.3805,VALID,0,VALID,23.7793,VALID,88,VALID,0.739062,
2010-11-09, 01:21:04,VALID,1000.67,VALID,0,VALID,90.3423,VALID,0,VALID,23.6994,VALID,88,VALID,0.544141,
2010-11-09, 01:22:04,VALID,1000.63,VALID,0,VALID,90.3423,VALID,0,VALID,23.6622,VALID,92,VALID,0.441797,
2010-11-09, 01:23:04,VALID,1000.61,VALID,0,VALID,90.4339,VALID,0,VALID,23.6232,VALID,162,VALID,0.776953,
2010-11-09, 01:24:04,VALID,1000.57,VALID,0,VALID,90.7696,VALID,0,VALID,23.5823,VALID,163,VALID,0.873047,
2010-11-09, 01:25:04,VALID,1000.54,VALID,0,VALID,91.0137,VALID,0,VALID,23.6232,VALID,170,VALID,0.920703,
2010-11-09, 01:26:04,VALID,1000.49,VALID,0,VALID,91.1511,VALID,0,VALID,23.6622,VALID,163,VALID,0.814453,
2010-11-09, 01:27:04,VALID,1000.46,VALID,0,VALID,91.2121,VALID,0,VALID,23.6817,VALID,163,VALID,0.678516,
2010-11-09, 01:28:04,VALID,1000.42,VALID,0,VALID,91.2426,VALID,0,VALID,23.6799,VALID,163,VALID,0.514063,
2010-11-09, 01:29:04,VALID,1000.42,VALID,0,VALID,91.2579,VALID,0,VALID,23.7012,VALID,163,VALID,0.489062,
2010-11-09, 01:30:04,VALID,1000.37,VALID,0,VALID,91.2045,VALID,0,VALID,23.7012,VALID,163,VALID,0.444141,
2010-11-09, 01:31:04,VALID,1000.35,VALID,0,VALID,91.1358,VALID,0,VALID,23.7012,VALID,163,VALID,0.489453,
2010-11-09, 01:32:04,VALID,1000.37,VALID,0,VALID,91.0443,VALID,0,VALID,23.7012,VALID,162,VALID,0.390234,
2010-11-09, 01:33:04,VALID,1000.37,VALID,0,VALID,91.029,VALID,0,VALID,23.6799,VALID,162,VALID,0.345313,
2010-11-09, 01:34:04,VALID,1000.4,VALID,0,VALID,90.9985,VALID,0,VALID,23.7012,VALID,162,VALID,0.338672,
2010-11-09, 01:35:04,VALID,1000.42,VALID,0,VALID,90.8383,VALID,0,VALID,23.6622,VALID,162,VALID,0.579297,
2010-11-09, 01:36:04,VALID,1000.39,VALID,0,VALID,90.8077,VALID,0,VALID,23.6427,VALID,162,VALID,0.677734,
2010-11-09, 01:37:04,VALID,1000.4,VALID,0,VALID,90.9069,VALID,0,VALID,23.6019,VALID,161,VALID,0.640234,
2010-11-09, 01:38:04,VALID,1000.41,VALID,0,VALID,90.9527,VALID,0,VALID,23.5823,VALID,161,VALID,0.566406,
2010-11-09, 01:39:04,VALID,1000.4,VALID,0,VALID,90.9298,VALID,0,VALID,23.5646,VALID,110,VALID,0.760547,
2010-11-09, 01:40:04,VALID,1000.4,VALID,0,VALID,90.9985,VALID,0,VALID,23.5256,VALID,110,VALID,0.736719,
2010-11-09, 01:41:04,VALID,1000.39,VALID,0,VALID,91.0519,VALID,0,VALID,23.5061,VALID,102,VALID,0.691406,
2010-11-09, 01:42:04,VALID,1000.42,VALID,0,VALID,91.0443,VALID,0,VALID,23.4866,VALID,102,VALID,0.573438,
2010-11-09, 01:43:04,VALID,1000.44,VALID,0,VALID,91.0748,VALID,0,VALID,23.4671,VALID,86,VALID,0.600781,
2010-11-09, 01:44:04,VALID,1000.47,VALID,0,VALID,91.1434,VALID,0,VALID,23.4067,VALID,67,VALID,0.731641,
2010-11-09, 01:45:04,VALID,1000.46,VALID,0,VALID,91.235,VALID,0,VALID,23.3872,VALID,57,VALID,0.740625,
2010-11-09, 01:46:04,VALID,1000.44,VALID,0,VALID,91.3113,VALID,0,VALID,23.3695,VALID,48,VALID,0.765234,
2010-11-09, 01:47:04,VALID,1000.44,VALID,0,VALID,91.3494,VALID,0,VALID,23.2897,VALID,47,VALID,0.679297,
2010-11-09, 01:48:04,VALID,1000.43,VALID,0,VALID,91.4257,VALID,0,VALID,23.2507,VALID,18,VALID,0.749219,
2010-11-09, 01:49:04,VALID,1000.43,VALID,0,VALID,91.5326,VALID,0,VALID,23.2117,VALID,13,VALID,0.499609,
2010-11-09, 01:50:04,VALID,1000.45,VALID,0,VALID,91.7157,VALID,0,VALID,23.2329,VALID,1,VALID,0.594141,
2010-11-09, 01:51:04,VALID,1000.44,VALID,0,VALID,91.8911,VALID,0,VALID,23.2329,VALID,1,VALID,0.227344,
2010-11-09, 01:52:04,VALID,1000.48,VALID,0,VALID,92.0056,VALID,0,VALID,23.2134,VALID,1,VALID,0.00585938,
2010-11-09, 01:53:04,VALID,1000.47,VALID,0,VALID,92.0437,VALID,0,VALID,23.1921,VALID,1,VALID,0.241016,
2010-11-09, 01:54:04,VALID,1000.47,VALID,0,VALID,92.1048,VALID,0,VALID,23.1939,VALID,1,VALID,0.288281,
2010-11-09, 01:55:04,VALID,1000.49,VALID,0,VALID,92.1506,VALID,0,VALID,23.1939,VALID,1,VALID,0.395703,
2010-11-09, 01:56:04,VALID,1000.49,VALID,0,VALID,92.2192,VALID,0,VALID,23.1744,VALID,1,VALID,0.567969,
2010-11-09, 01:57:04,VALID,1000.49,VALID,0,VALID,92.2803,VALID,0,VALID,23.1939,VALID,1,VALID,0.514063,
2010-11-09, 01:58:04,VALID,1000.47,VALID,0,VALID,92.3108,VALID,0,VALID,23.1744,VALID,1,VALID,0.653125,
2010-11-09, 01:59:04,VALID,1000.51,VALID,0,VALID,92.3566,VALID,0,VALID,23.1939,VALID,1,VALID,0.316406,
2010-11-09, 02:00:04,VALID,1000.53,VALID,0,VALID,92.3947,VALID,0,VALID,23.1744,VALID,1,VALID,0,
2010-11-09, 02:01:04,VALID,1000.53,VALID,0,VALID,92.3947,VALID,0,VALID,23.1744,VALID,1,VALID,0,
2010-11-09, 02:02:04,VALID,1000.54,VALID,0,VALID,92.41,VALID,0,VALID,23.1939,VALID,1,VALID,0.317969,
2010-11-09, 02:03:04,VALID,1000.51,VALID,0,VALID,92.4634,VALID,0,VALID,23.2134,VALID,1,VALID,0.109375,
2010-11-09, 02:04:04,VALID,1000.49,VALID,0,VALID,92.4939,VALID,0,VALID,23.1921,VALID,1,VALID,0.009375,
2010-11-09, 02:05:04,VALID,1000.48,VALID,0,VALID,92.5168,VALID,0,VALID,23.2117,VALID,1,VALID,0.258203,
2010-11-09, 02:06:04,VALID,1000.44,VALID,0,VALID,92.5397,VALID,0,VALID,23.2524,VALID,1,VALID,0.520703,
2010-11-09, 02:07:04,VALID,1000.46,VALID,0,VALID,92.5702,VALID,0,VALID,23.311,VALID,256,VALID,0.814453,
2010-11-09, 02:08:04,VALID,1000.41,VALID,0,VALID,92.5626,VALID,0,VALID,23.35,VALID,256,VALID,0.838672,
2010-11-09, 02:09:04,VALID,1000.37,VALID,0,VALID,92.5549,VALID,0,VALID,23.428,VALID,223,VALID,0.566406,
2010-11-09, 02:10:04,VALID,1000.36,VALID,0,VALID,92.4481,VALID,0,VALID,23.4671,VALID,220,VALID,0.565234,
2010-11-09, 02:11:04,VALID,1000.36,VALID,0,VALID,92.3794,VALID,0,VALID,23.4671,VALID,225,VALID,0.59375,
2010-11-09, 02:12:04,VALID,1000.36,VALID,0,VALID,92.2574,VALID,0,VALID,23.4848,VALID,225,VALID,0.425781,
2010-11-09, 02:13:04,VALID,1000.34,VALID,0,VALID,92.1582,VALID,0,VALID,23.4653,VALID,225,VALID,0.0957031,
2010-11-09, 02:14:04,VALID,1000.32,VALID,0,VALID,92.0361,VALID,0,VALID,23.4848,VALID,225,VALID,0.0472656,
2010-11-09, 02:15:04,VALID,1000.3,VALID,0,VALID,91.8988,VALID,0,VALID,23.4866,VALID,225,VALID,0.161328,
2010-11-09, 02:16:04,VALID,1000.24,VALID,0,VALID,91.7767,VALID,0,VALID,23.4671,VALID,219,VALID,0.0441406,
2010-11-09, 02:17:04,VALID,1000.23,VALID,0,VALID,91.6851,VALID,0,VALID,23.4475,VALID,186,VALID,0.78125,
2010-11-09, 02:18:04,VALID,1000.23,VALID,0,VALID,91.7462,VALID,0,VALID,23.5043,VALID,186,VALID,0.392188,
2010-11-09, 02:19:04,VALID,1000.2,VALID,0,VALID,91.7233,VALID,0,VALID,23.5451,VALID,186,VALID,0.33125,
2010-11-09, 02:20:04,VALID,1000.21,VALID,0,VALID,91.6699,VALID,0,VALID,23.5628,VALID,186,VALID,0.48125,
2010-11-09, 02:21:04,VALID,1000.22,VALID,0,VALID,91.6012,VALID,0,VALID,23.6427,VALID,186,VALID,0.398438,
2010-11-09, 02:22:04,VALID,1000.22,VALID,0,VALID,91.441,VALID,0,VALID,23.6604,VALID,186,VALID,0.64375,
2010-11-09, 02:23:04,VALID,1000.21,VALID,0,VALID,91.2121,VALID,0,VALID,23.7012,VALID,163,VALID,0.977734,
2010-11-09, 02:24:04,VALID,1000.23,VALID,0,VALID,90.8993,VALID,0,VALID,23.7597,VALID,146,VALID,1.19805,
2010-11-09, 02:25:04,VALID,1000.25,VALID,0,VALID,90.6246,VALID,0,VALID,23.7988,VALID,140,VALID,1.23398,
2010-11-09, 02:26:04,VALID,1000.22,VALID,0,VALID,90.2584,VALID,0,VALID,23.8183,VALID,136,VALID,1.02148,
2010-11-09, 02:27:04,VALID,1000.22,VALID,0,VALID,90.0066,VALID,0,VALID,23.8183,VALID,133,VALID,0.825781,
2010-11-09, 02:28:04,VALID,1000.23,VALID,0,VALID,89.9227,VALID,0,VALID,23.7988,VALID,133,VALID,0.85625,
2010-11-09, 02:29:04,VALID,1000.21,VALID,0,VALID,90.0219,VALID,0,VALID,23.7597,VALID,125,VALID,0.875391,
2010-11-09, 02:30:04,VALID,1000.18,VALID,0,VALID,90.1745,VALID,0,VALID,23.7384,VALID,84,VALID,0.986719,
2010-11-09, 02:31:04,VALID,1000.2,VALID,0,VALID,90.1821,VALID,0,VALID,23.7189,VALID,51,VALID,0.996484,
2010-11-09, 02:32:04,VALID,1000.21,VALID,0,VALID,90.1592,VALID,0,VALID,23.7012,VALID,50,VALID,0.593359,
2010-11-09, 02:33:04,VALID,1000.21,VALID,0,VALID,90.2508,VALID,0,VALID,23.6427,VALID,50,VALID,0.295312,
2010-11-09, 02:34:04,VALID,1000.21,VALID,0,VALID,90.3118,VALID,0,VALID,23.6036,VALID,50,VALID,0,
2010-11-09, 02:35:04,VALID,1000.22,VALID,0,VALID,90.411,VALID,0,VALID,23.5646,VALID,50,VALID,0,
2010-11-09, 02:36:04,VALID,1000.25,VALID,0,VALID,90.5254,VALID,0,VALID,23.5256,VALID,50,VALID,0,
2010-11-09, 02:37:04,VALID,1000.29,VALID,0,VALID,90.6933,VALID,0,VALID,23.4848,VALID,50,VALID,0.483984,
2010-11-09, 02:38:04,VALID,1000.32,VALID,0,VALID,90.8459,VALID,0,VALID,23.4671,VALID,43,VALID,0.946875,
2010-11-09, 02:39:04,VALID,1000.35,VALID,0,VALID,91.029,VALID,0,VALID,23.4263,VALID,36,VALID,1.40547,
2010-11-09, 02:40:04,VALID,1000.38,VALID,0,VALID,91.0977,VALID,0,VALID,23.4085,VALID,27,VALID,1.65742,
2010-11-09, 02:41:04,VALID,1000.39,VALID,0,VALID,91.0748,VALID,0,VALID,23.3287,VALID,19,VALID,2.01133,
2010-11-09, 02:42:04,VALID,1000.39,VALID,0,VALID,91.1968,VALID,0,VALID,23.3092,VALID,23,VALID,1.54648,
2010-11-09, 02:43:04,VALID,1000.39,VALID,0,VALID,91.3266,VALID,0,VALID,23.2915,VALID,31,VALID,1.79492,
2010-11-09, 02:44:04,VALID,1000.36,VALID,0,VALID,91.441,VALID,0,VALID,23.2312,VALID,28,VALID,1.04844,
2010-11-09, 02:45:04,VALID,1000.33,VALID,0,VALID,91.5478,VALID,0,VALID,23.1921,VALID,28,VALID,0.448438,
2010-11-09, 02:46:04,VALID,1000.33,VALID,0,VALID,91.6012,VALID,0,VALID,23.1726,VALID,28,VALID,0.319531,
2010-11-09, 02:47:04,VALID,1000.35,VALID,0,VALID,91.708,VALID,0,VALID,23.1744,VALID,28,VALID,0.0917969,
2010-11-09, 02:48:04,VALID,1000.35,VALID,0,VALID,91.7843,VALID,0,VALID,23.1336,VALID,28,VALID,0,
2010-11-09, 02:49:04,VALID,1000.31,VALID,0,VALID,91.853,VALID,0,VALID,23.1336,VALID,28,VALID,0.00234375,
2010-11-09, 02:50:04,VALID,1000.33,VALID,0,VALID,91.9217,VALID,0,VALID,23.1336,VALID,28,VALID,0.557813,
2010-11-09, 02:51:04,VALID,1000.35,VALID,0,VALID,92.0132,VALID,0,VALID,23.1744,VALID,162,VALID,0.613281,
2010-11-09, 02:52:04,VALID,1000.38,VALID,0,VALID,92.0895,VALID,0,VALID,23.1921,VALID,162,VALID,1.23906,
2010-11-09, 02:53:04,VALID,1000.38,VALID,0,VALID,92.1811,VALID,0,VALID,23.2312,VALID,172,VALID,0.933594,
2010-11-09, 02:54:04,VALID,1000.37,VALID,0,VALID,92.2421,VALID,0,VALID,23.2897,VALID,172,VALID,0.578125,
2010-11-09, 02:55:04,VALID,1000.36,VALID,0,VALID,92.3031,VALID,0,VALID,23.3305,VALID,172,VALID,0.171484,
2010-11-09, 02:56:04,VALID,1000.33,VALID,0,VALID,92.2574,VALID,0,VALID,23.3092,VALID,172,VALID,0.450781,
2010-11-09, 02:57:04,VALID,1000.29,VALID,0,VALID,92.2726,VALID,0,VALID,23.35,VALID,57,VALID,0.844922,
2010-11-09, 02:58:04,VALID,1000.25,VALID,0,VALID,92.2497,VALID,0,VALID,23.3482,VALID,38,VALID,0.885156,
2010-11-09, 02:59:04,VALID,1000.23,VALID,0,VALID,92.1811,VALID,0,VALID,23.3695,VALID,38,VALID,0.628516,
2010-11-09, 03:00:04,VALID,1000.19,VALID,0,VALID,92.0743,VALID,0,VALID,23.35,VALID,38,VALID,0.525781,
2010-11-09, 03:01:04,VALID,1000.17,VALID,0,VALID,91.9903,VALID,0,VALID,23.3092,VALID,38,VALID,0.358594,
2010-11-09, 03:02:04,VALID,1000.21,VALID,0,VALID,91.9064,VALID,0,VALID,23.311,VALID,38,VALID,0.0574219,
2010-11-09, 03:03:04,VALID,1000.23,VALID,0,VALID,91.853,VALID,0,VALID,23.3092,VALID,38,VALID,0.295312,
2010-11-09, 03:04:04,VALID,1000.22,VALID,0,VALID,91.8454,VALID,0,VALID,23.311,VALID,38,VALID,0.184375,
2010-11-09, 03:05:04,VALID,1000.24,VALID,0,VALID,91.7767,VALID,0,VALID,23.2719,VALID,38,VALID,0.0257812,
2010-11-09, 03:06:04,VALID,1000.21,VALID,0,VALID,91.7996,VALID,0,VALID,23.2719,VALID,38,VALID,0,
2010-11-09, 03:07:04,VALID,1000.21,VALID,0,VALID,91.8377,VALID,0,VALID,23.2719,VALID,38,VALID,0.234375,
2010-11-09, 03:08:04,VALID,1000.19,VALID,0,VALID,91.7233,VALID,0,VALID,23.2134,VALID,38,VALID,0.725,
2010-11-09, 03:09:04,VALID,1000.18,VALID,0,VALID,91.6317,VALID,0,VALID,23.1549,VALID,38,VALID,0.796094,
2010-11-09, 03:10:04,VALID,1000.18,VALID,0,VALID,91.586,VALID,0,VALID,23.0946,VALID,38,VALID,0.799219,
2010-11-09, 03:11:04,VALID,1000.17,VALID,0,VALID,91.5097,VALID,0,VALID,23.0166,VALID,38,VALID,0.924609,
2010-11-09, 03:12:04,VALID,1000.16,VALID,0,VALID,91.5554,VALID,0,VALID,23.0183,VALID,38,VALID,0.828906,
2010-11-09, 03:13:04,VALID,1000.16,VALID,0,VALID,91.6851,VALID,0,VALID,22.9988,VALID,38,VALID,0.572266,
2010-11-09, 03:14:04,VALID,1000.15,VALID,0,VALID,91.8072,VALID,0,VALID,22.9581,VALID,38,VALID,0.221094,
2010-11-09, 03:15:04,VALID,1000.08,VALID,0,VALID,91.8606,VALID,0,VALID,22.9581,VALID,38,VALID,0,
2010-11-09, 03:16:04,VALID,1000.09,VALID,0,VALID,91.9674,VALID,0,VALID,22.9776,VALID,38,VALID,0.235156,
2010-11-09, 03:17:04,VALID,1000.07,VALID,0,VALID,92.1124,VALID,0,VALID,23.0166,VALID,38,VALID,0.245703,
2010-11-09, 03:18:04,VALID,1000.1,VALID,0,VALID,92.2726,VALID,0,VALID,23.0769,VALID,38,VALID,0.254687,
2010-11-09, 03:19:04,VALID,1000.09,VALID,0,VALID,92.3718,VALID,0,VALID,23.1159,VALID,38,VALID,0,
2010-11-09, 03:20:04,VALID,1000.05,VALID,0,VALID,92.4328,VALID,0,VALID,23.0946,VALID,38,VALID,0,
2010-11-09, 03:21:04,VALID,1000.04,VALID,0,VALID,92.471,VALID,0,VALID,23.0964,VALID,38,VALID,0,
2010-11-09, 03:22:04,VALID,1000.02,VALID,0,VALID,92.4863,VALID,0,VALID,23.0946,VALID,38,VALID,0,
2010-11-09, 03:23:04,VALID,1000.07,VALID,0,VALID,92.4939,VALID,0,VALID,23.1159,VALID,38,VALID,0.502734,
2010-11-09, 03:24:04,VALID,1000.09,VALID,0,VALID,92.5015,VALID,0,VALID,23.0964,VALID,38,VALID,0.834375,
2010-11-09, 03:25:04,VALID,1000.09,VALID,0,VALID,92.471,VALID,0,VALID,23.0573,VALID,28,VALID,0.763281,
2010-11-09, 03:26:04,VALID,1000.09,VALID,0,VALID,92.3566,VALID,0,VALID,22.9581,VALID,28,VALID,1.04492,
2010-11-09, 03:27:04,VALID,1000.12,VALID,0,VALID,92.1658,VALID,0,VALID,22.8818,VALID,28,VALID,0.863672,
2010-11-09, 03:28:04,VALID,1000.1,VALID,0,VALID,92.1429,VALID,0,VALID,22.841,VALID,28,VALID,0.552344,
2010-11-09, 03:29:04,VALID,1000.12,VALID,0,VALID,92.2726,VALID,0,VALID,22.9013,VALID,28,VALID,0.442578,
2010-11-09, 03:30:04,VALID,1000.12,VALID,0,VALID,92.3947,VALID,0,VALID,22.88,VALID,28,VALID,0.467187,
2010-11-09, 03:31:04,VALID,1000.09,VALID,0,VALID,92.471,VALID,0,VALID,22.8818,VALID,28,VALID,0.623828,
2010-11-09, 03:32:04,VALID,1000.13,VALID,0,VALID,92.532,VALID,0,VALID,22.8818,VALID,28,VALID,0.753125,
2010-11-09, 03:33:04,VALID,1000.12,VALID,0,VALID,92.6083,VALID,0,VALID,22.88,VALID,28,VALID,0.992969,
2010-11-09, 03:34:04,VALID,1000.12,VALID,0,VALID,92.616,VALID,0,VALID,22.8605,VALID,28,VALID,0.861719,
2010-11-09, 03:35:04,VALID,1000.15,VALID,0,VALID,92.6388,VALID,0,VALID,22.8427,VALID,28,VALID,0.967578,
2010-11-09, 03:36:04,VALID,1000.17,VALID,0,VALID,92.6083,VALID,0,VALID,22.8037,VALID,28,VALID,0.995313,
2010-11-09, 03:37:04,VALID,1000.2,VALID,0,VALID,92.6846,VALID,0,VALID,22.7825,VALID,29,VALID,0.8375,
2010-11-09, 03:38:04,VALID,1000.21,VALID,0,VALID,92.6846,VALID,0,VALID,22.763,VALID,40,VALID,0.844141,
2010-11-09, 03:39:04,VALID,1000.21,VALID,0,VALID,92.7304,VALID,0,VALID,22.7825,VALID,40,VALID,0.721875,
2010-11-09, 03:40:04,VALID,1000.22,VALID,0,VALID,92.7609,VALID,0,VALID,22.8037,VALID,40,VALID,0.599609,
2010-11-09, 03:41:04,VALID,1000.22,VALID,0,VALID,92.7914,VALID,0,VALID,22.8232,VALID,40,VALID,0.572656,
2010-11-09, 03:42:04,VALID,1000.25,VALID,0,VALID,92.7609,VALID,0,VALID,22.8232,VALID,40,VALID,0.585938,
2010-11-09, 03:43:04,VALID,1000.26,VALID,0,VALID,92.7533,VALID,0,VALID,22.8232,VALID,40,VALID,0.626953,
2010-11-09, 03:44:04,VALID,1000.27,VALID,0,VALID,92.7151,VALID,0,VALID,22.8037,VALID,40,VALID,0.426172,
2010-11-09, 03:45:04,VALID,1000.3,VALID,0,VALID,92.6694,VALID,0,VALID,22.7825,VALID,40,VALID,0.261719,
2010-11-09, 03:46:04,VALID,1000.28,VALID,0,VALID,92.6083,VALID,0,VALID,22.7842,VALID,40,VALID,0,
2010-11-09, 03:47:04,VALID,1000.26,VALID,0,VALID,92.5626,VALID,0,VALID,22.7435,VALID,40,VALID,0.276172,
2010-11-09, 03:48:04,VALID,1000.26,VALID,0,VALID,92.5397,VALID,0,VALID,22.7842,VALID,40,VALID,0.040625,